Weather History for KDXR - August, 2013

Change the Weather History Date:

Wednesday, August 28, 2013

  Actual Average Record
Temperature  
Mean Temperature 72 °F -  
Max Temperature 84 °F 82 °F 99 °F (1993)
Min Temperature 62 °F 62 °F 44 °F (1957)
Cooling Degree Days 7    
Growing Degree Days 22 (Base 50)    
Moisture  
Dew Point 64 °F    
Average Humidity 80    
Maximum Humidity 94    
Minimum Humidity 54    
Precipitation  
Precipitation 0.00 in - - ()
Sea Level Pressure  
Sea Level Pressure 29.90 in    
Wind  
Wind Speed 2 mph (SSW)    
Max Wind Speed 15 mph    
Max Gust Speed 20 mph    
Visibility 8 miles    
Events Thunderstorm    
Averages and records for this station are not official NWS values.
T = Trace of Precipitation, MM = Missing Value Source: NWS Daily Summary

Daily Weather History Graph

Daily Weather History Graph

Search for Another Location

Airport or City:

Trip Planner

Search our weather history database for the weather conditions in past years. The results will help you decide how hot, cold, wet, or windy it might be!

Date:

Astronomy

Aug. 28, 2013 Rise Set
Actual Time 6:16 AM EDT 7:32 PM EDT
Civil Twilight 5:47 AM EDT 8:01 PM EDT
Nautical Twilight 5:13 AM EDT 8:35 PM EDT
Astronomical Twilight 4:37 AM EDT 9:11 PM EDT
Moon No Moon Rise 2:10 PM EDT (8/28)
Length of Visible Light 14h 13m
Length of Day
13h 16m
Waning Gibbous, 47% of the Moon is Illuminated
Aug 28
Waning Gibbous
Sep 5
New
Sep 12
First Quarter
Sep 19
Full
Sep 26
Last Quarter

Hourly Weather History & Observations

Time (EDT) Temp. Heat Index Dew Point Humidity Pressure Visibility Wind Dir Wind Speed Gust Speed Precip Events Conditions
12:53 AM 66.9 °F - 64.0 °F 90% 29.92 in 7.0 mi Calm Calm - N/A   Partly Cloudy
1:53 AM 64.9 °F - 63.0 °F 93% 29.90 in 5.0 mi Calm Calm - N/A   Clear
2:51 AM 64.4 °F - 62.6 °F 94% 29.90 in 1.8 mi Calm Calm - N/A   Clear
2:53 AM 64.9 °F - 63.0 °F 93% 29.89 in 1.5 mi Calm Calm - N/A   Clear
3:01 AM 64.4 °F - 62.6 °F 94% 29.90 in 3.0 mi Calm Calm - N/A   Clear
3:42 AM 62.6 °F - 60.8 °F 94% 29.89 in 2.0 mi Calm Calm - N/A   Partly Cloudy
3:51 AM 62.6 °F - 60.8 °F 94% 29.89 in 7.0 mi Calm Calm - N/A   Partly Cloudy
3:53 AM 63.0 °F - 61.0 °F 93% 29.88 in 8.0 mi Calm Calm - N/A   Partly Cloudy
4:53 AM 63.0 °F - 61.0 °F 93% 29.89 in 6.0 mi SW 3.5 mph - N/A   Partly Cloudy
5:53 AM 62.1 °F - 59.0 °F 90% 29.90 in 5.0 mi Calm Calm - N/A   Scattered Clouds
6:53 AM 63.0 °F - 60.1 °F 90% 29.91 in 5.0 mi Calm Calm - N/A   Clear
7:53 AM 69.1 °F - 64.0 °F 84% 29.91 in 7.0 mi Calm Calm - N/A   Partly Cloudy
8:53 AM 71.1 °F - 64.9 °F 81% 29.91 in 8.0 mi Calm Calm - N/A   Scattered Clouds
9:53 AM 78.1 °F - 66.0 °F 66% 29.91 in 10.0 mi NNE 3.5 mph - N/A   Clear
10:53 AM 80.1 °F 81.9 °F 64.9 °F 60% 29.90 in 10.0 mi Calm Calm - N/A   Clear
11:53 AM 82.0 °F 84.1 °F 66.0 °F 58% 29.89 in 10.0 mi Calm Calm - N/A   Clear
12:53 PM 82.9 °F 84.6 °F 64.9 °F 54% 29.88 in 10.0 mi South 4.6 mph - N/A   Mostly Cloudy
1:53 PM 82.9 °F 85.0 °F 66.0 °F 56% 29.87 in 10.0 mi ESE 3.5 mph - N/A   Overcast
2:53 PM 81.0 °F 83.3 °F 66.9 °F 62% 29.87 in 10.0 mi SE 5.8 mph - 0.00 in   Partly Cloudy
3:03 PM 80.6 °F 82.7 °F 66.2 °F 61% 29.88 in 10.0 mi SSE 4.6 mph - N/A Thunderstorm Partly Cloudy
3:13 PM 80.6 °F 82.7 °F 66.2 °F 61% 29.88 in 10.0 mi SSE 3.5 mph - N/A Thunderstorm Clear
3:19 PM 80.6 °F 82.7 °F 66.2 °F 61% 29.88 in 10.0 mi WSW 15.0 mph 19.6 mph N/A Thunderstorm Partly Cloudy
3:53 PM 73.9 °F - 64.0 °F 71% 29.89 in 10.0 mi WSW 12.7 mph - N/A Thunderstorm Mostly Cloudy
4:53 PM 73.9 °F - 66.9 °F 79% 29.88 in 9.0 mi WSW 5.8 mph - N/A Thunderstorm Clear
5:00 PM 73.4 °F - 66.2 °F 78% 29.89 in 9.0 mi SW 8.1 mph - N/A   Clear
5:53 PM 73.9 °F - 66.9 °F 79% 29.89 in 9.0 mi WSW 3.5 mph - N/A   Clear
6:53 PM 73.9 °F - 66.0 °F 76% 29.89 in 10.0 mi ENE 3.5 mph - N/A   Clear
7:53 PM 71.1 °F - 66.0 °F 84% 29.89 in 9.0 mi Calm Calm - N/A   Clear
8:53 PM 69.1 °F - 66.0 °F 90% 29.91 in 7.0 mi WSW 3.5 mph - N/A   Clear
9:53 PM 68.0 °F - 64.9 °F 90% 29.92 in 7.0 mi Calm Calm - N/A   Clear
10:53 PM 68.0 °F - 64.9 °F 90% 29.91 in 7.0 mi Calm Calm - N/A   Clear
11:53 PM 66.0 °F - 63.0 °F 90% 29.92 in 6.0 mi Calm Calm - N/A   Clear